[[{"header":{"parameterUnit":"m.s-1","parameterCategory":1,"la1":30.2991,"la2":30.254,"lo1":-89.0895,"lo2":-89.0444,"dy":0.0017,"dx":0.0017,"nx":28,"ny":28,"refTime":"2024-12-31T03:00:00:Z","depth":0,"parameterNumber":2,"parameterNumberName":"U-component_of_WINDS"},"data":[0,0,0,0,0,0,0,0,0,0,0,0,0,0,0,0,0,0,0,0,0,0,0,0,0,0,0,0,0,0,0,0,0,0,0,0,0,0,0,0,0,0,0,0,0,0,0,0,0,0,0,0,0,0,0,0,0,0,-0.7666,-0.7666,0,-0.7685,-0.7685,-0.7685,-0.7709,-0.7709,-0.7709,-0.771,-0.7728,-0.7728,-0.7728,0,0,0,0,0,0,0,0,0,0,0,0,0,-0.7649,-0.765,-0.7666,-0.7666,-0.7666,-0.7684,-0.7685,-0.7685,-0.7708,-0.7709,-0.7709,-0.771,-0.7728,-0.7728,-0.7728,0,0,0,0,0,0,0,0,0,0,0,0,0,-0.7661,-0.765,-0.7666,-0.768,-0.7682,-0.7684,-0.7685,-0.7685,-0.7708,-0.7709,-0.771,-0.771,-0.7728,-0.7728,-0.7728,-0.7718,0,0,-0.7729,-0.7729,0,0,0,0,0,0,0,0,-0.766,-0.7662,-0.7678,-0.7679,-0.7681,-0.7695,-0.7686,-0.7696,-0.7708,-0.7698,-0.771,-0.771,-0.7717,-0.7718,-0.772,-0.7719,-0.772,-0.7729,-0.7729,-0.7729,-0.7729,0,0,0,0,0,0,0,-0.766,-0.7661,-0.7673,-0.7678,-0.768,-0.7685,-0.7688,-0.7688,-0.7704,-0.7699,-0.7701,-0.7703,-0.7717,-0.772,-0.7721,-0.772,-0.7729,-0.7729,-0.7729,-0.7729,-0.771,-0.771,0,0,0,0,0,0,-0.7657,-0.766,-0.7673,-0.7674,-0.7672,-0.7685,-0.7688,-0.769,-0.7704,-0.7707,-0.7702,-0.7704,-0.7719,-0.772,-0.7721,-0.7709,-0.7729,-0.773,-0.773,-0.7711,-0.771,-0.7709,0,0,0,0,0,0,-0.7656,-0.7658,-0.7672,-0.7667,-0.767,-0.7685,-0.7687,-0.769,-0.7692,-0.7706,-0.7709,-0.7702,-0.772,-0.7721,-0.7719,-0.771,-0.773,-0.773,-0.7712,-0.7711,-0.771,-0.7685,0,0,0,0,0,0,-0.7656,-0.7657,-0.7654,-0.7667,-0.767,-0.7669,-0.7686,-0.769,-0.7692,-0.7695,-0.7707,-0.7709,-0.772,-0.7718,-0.7719,-0.7711,-0.773,-0.7712,-0.7711,-0.771,-0.7686,-0.7683,-0.768,0,0,0,0,0,-0.7655,-0.7647,-0.7654,-0.7655,-0.7666,-0.7669,-0.767,-0.7683,-0.7692,-0.7688,-0.7697,-0.7709,-0.7711,-0.7718,-0.7719,-0.771,-0.7713,-0.7711,-0.771,-0.7688,-0.7684,-0.768,0,0,0,0,0,0,-0.7632,-0.7649,-0.7657,-0.7652,-0.7659,-0.7673,-0.7669,-0.7679,-0.7683,-0.7685,-0.77,-0.7703,-0.7698,-0.7704,-0.7711,-0.77,-0.7714,-0.7712,-0.7696,-0.7693,-0.769,-0.7688,-0.773,0,0,0,0,0,-0.7627,-0.7628,-0.7642,-0.7637,-0.7639,-0.7653,-0.7655,-0.7664,-0.7672,-0.7674,-0.7683,-0.769,-0.7692,-0.7693,-0.7696,-0.7688,-0.769,-0.7682,-0.7679,-0.7677,-0.7675,-0.7669,-0.7666,-0.7705,-0.7705,-0.7705,0,0,-0.7615,-0.7624,-0.7624,-0.7632,-0.7638,-0.7638,-0.7655,-0.7655,-0.7655,-0.7674,-0.7672,-0.7679,-0.7687,-0.7681,-0.7679,-0.7686,-0.7665,-0.7675,-0.7673,-0.7672,-0.7668,-0.7664,-0.7661,-0.7704,-0.7704,-0.7704,0,0,-0.7594,-0.7602,-0.7597,-0.7603,-0.7611,-0.7621,-0.7619,-0.7631,-0.7636,-0.7634,-0.7649,-0.7649,-0.7652,-0.7657,-0.766,-0.7639,-0.7649,-0.7639,-0.7623,-0.7617,-0.7614,-0.7611,-0.7602,-0.7599,-0.7638,-0.7638,-0.7638,0,-0.7578,-0.7579,-0.7594,-0.7592,-0.7594,-0.7612,-0.7607,-0.7611,-0.7621,-0.7622,-0.763,-0.7633,-0.764,-0.7635,-0.763,-0.7632,-0.763,-0.7637,-0.7613,-0.7611,-0.7608,-0.76,-0.7597,-0.7636,-0.7636,-0.7637,-0.7637,0,-0.7559,-0.7559,-0.7554,-0.7562,-0.7564,-0.7561,-0.7574,-0.7574,-0.7583,-0.7591,-0.7588,-0.7597,-0.7601,-0.7601,-0.761,-0.7596,-0.76,-0.7611,-0.7624,-0.7603,-0.7595,-0.7592,-0.7634,-0.7635,-0.7635,-0.7636,0,0,-0.7524,-0.7539,-0.7536,-0.7539,-0.755,-0.755,-0.7547,-0.7551,-0.755,-0.7556,-0.7553,-0.7555,-0.7564,-0.7567,-0.7577,-0.7572,-0.7553,-0.7583,-0.7583,-0.7576,-0.7536,-0.7527,-0.7523,-0.756,-0.756,-0.7559,-0.7535,0,-0.7503,-0.7498,-0.7511,-0.7503,-0.7502,-0.7518,-0.7515,-0.7521,-0.7528,-0.7528,-0.7537,-0.7537,-0.755,-0.7552,-0.7548,-0.7556,-0.7545,-0.7558,-0.7556,-0.7556,-0.7552,-0.7519,-0.751,-0.7487,-0.7532,-0.7532,-0.7531,0,-0.7479,-0.7482,-0.7474,-0.7483,-0.7483,-0.748,-0.7484,-0.7484,-0.7491,-0.7496,-0.7499,-0.751,-0.7507,-0.7521,-0.7516,-0.7524,-0.7524,-0.7528,-0.7527,-0.7526,-0.7541,-0.7516,-0.748,-0.7475,-0.7527,-0.7527,-0.7528,0,-0.7451,-0.7454,-0.7449,-0.7451,-0.7463,-0.746,-0.7465,-0.7472,-0.7473,-0.7476,-0.7476,-0.7479,-0.748,-0.7482,-0.7493,-0.7503,-0.7486,-0.7501,-0.7489,-0.7489,-0.7484,-0.7484,-0.7446,-0.7487,-0.7487,-0.7487,-0.7487,0,-0.7426,-0.742,-0.7437,-0.7433,-0.7427,-0.7441,-0.7433,-0.744,-0.7446,-0.7443,-0.7458,-0.7455,-0.7471,-0.747,-0.7479,-0.7472,-0.7473,-0.7476,-0.7478,-0.7474,-0.7473,-0.7473,-0.7474,-0.7486,-0.7486,-0.7486,-0.7487,0,-0.7394,-0.7406,-0.7401,-0.7412,-0.7414,-0.7408,-0.7417,-0.7414,-0.7422,-0.7419,-0.7419,-0.7431,-0.7431,-0.7442,-0.7444,-0.745,-0.7438,-0.7444,-0.7436,-0.7437,-0.7424,-0.7424,-0.7383,-0.7377,-0.7424,-0.7423,-0.7423,0,-0.7377,-0.7372,-0.7382,-0.7381,-0.7385,-0.7384,-0.7385,-0.7398,-0.7398,-0.7404,-0.74,-0.7401,-0.7401,-0.7399,-0.7408,-0.7409,-0.7414,-0.7399,-0.7414,-0.7409,-0.7411,-0.7411,-0.7409,-0.7396,-0.7395,-0.7395,-0.7394,0,-0.7344,-0.7349,-0.735,-0.7351,-0.7352,-0.7354,-0.7357,-0.7356,-0.737,-0.7369,-0.7368,-0.7369,-0.737,-0.737,-0.7372,-0.7377,-0.7387,-0.739,-0.7387,-0.7381,-0.7376,-0.7376,-0.7425,-0.739,-0.7391,-0.7391,-0.7391,-0.7391,-0.7318,-0.7313,-0.7319,-0.7319,-0.7322,-0.7324,-0.7321,-0.7329,-0.7328,-0.733,-0.7338,-0.7335,-0.734,-0.7345,-0.7348,-0.7345,-0.7352,-0.7348,-0.7347,-0.7345,-0.7342,-0.7377,-0.7346,-0.7346,-0.7346,-0.7347,-0.7347,0,-0.7284,-0.7288,-0.7287,-0.729,-0.729,-0.73,-0.7304,-0.7302,-0.7299,-0.7303,-0.7304,-0.7302,-0.7301,-0.731,-0.731,-0.7306,-0.7311,-0.7305,-0.7305,-0.7305,-0.7337,-0.7338,-0.7301,-0.7301,-0.7301,-0.7301,-0.7301,-0.7301,-0.7266,-0.7259,-0.7264,-0.7259,-0.7263,-0.726,-0.7261,-0.7263,-0.7266,-0.7263,-0.7262,-0.7268,-0.7273,-0.7273,-0.7273,-0.7275,-0.7274,-0.7266,-0.727,-0.7299,-0.7303,-0.7308,-0.7309,-0.7266,-0.7266,-0.7239,-0.7239,-0.7238]},{"header":{"parameterUnit":"m.s-1","parameterCategory":1,"la1":30.2991,"la2":30.254,"lo1":-89.0895,"lo2":-89.0444,"dy":0.0017,"dx":0.0017,"nx":28,"ny":28,"refTime":"2024-12-31T03:00:00:Z","depth":0,"parameterNumber":3,"parameterNumberName":"V-component_of_WINDS"},"data":[0,0,0,0,0,0,0,0,0,0,0,0,0,0,0,0,0,0,0,0,0,0,0,0,0,0,0,0,0,0,0,0,0,0,0,0,0,0,0,0,0,0,0,0,0,0,0,0,0,0,0,0,0,0,0,0,0,0,3.2834,3.2833,0,3.28,3.2799,3.2799,3.2816,3.2817,3.2818,3.2819,3.2783,3.2781,3.2779,0,0,0,0,0,0,0,0,0,0,0,0,0,3.2914,3.2913,3.2834,3.2833,3.2833,3.28,3.2799,3.2799,3.2816,3.2817,3.2818,3.2819,3.2783,3.2781,3.2779,0,0,0,0,0,0,0,0,0,0,0,0,0,3.288,3.2912,3.2834,3.2837,3.2837,3.28,3.2799,3.2799,3.2816,3.2817,3.2818,3.2819,3.2784,3.2781,3.2779,3.2735,0,0,3.2771,3.2769,0,0,0,0,0,0,0,0,3.2882,3.2877,3.2837,3.2837,3.2837,3.2813,3.2815,3.2777,3.2815,3.2824,3.2819,3.282,3.2792,3.2789,3.2779,3.2734,3.2732,3.277,3.2769,3.2768,3.2767,0,0,0,0,0,0,0,3.2884,3.2878,3.282,3.2837,3.2837,3.2841,3.2838,3.2808,3.2801,3.2823,3.2824,3.282,3.2792,3.2782,3.2778,3.2732,3.277,3.2768,3.2766,3.2765,3.2652,3.2651,0,0,0,0,0,0,3.2886,3.288,3.2821,3.2819,3.2863,3.2838,3.2835,3.282,3.2801,3.28,3.2819,3.2821,3.2786,3.2782,3.2777,3.2727,3.2768,3.2765,3.2764,3.2653,3.2652,3.265,0,0,0,0,0,0,3.2888,3.2881,3.2823,3.285,3.2843,3.2836,3.2819,3.2818,3.2808,3.2798,3.2797,3.281,3.2787,3.2781,3.2746,3.2726,3.2764,3.2761,3.2655,3.2653,3.2651,3.2626,0,0,0,0,0,0,3.289,3.2881,3.2864,3.285,3.2841,3.2792,3.2817,3.2817,3.2804,3.2806,3.2789,3.2787,3.2787,3.275,3.2744,3.2723,3.2759,3.2657,3.2654,3.2652,3.2628,3.2623,3.2619,0,0,0,0,0,3.2893,3.2858,3.2863,3.2856,3.282,3.2791,3.2786,3.2787,3.2802,3.2785,3.2779,3.2788,3.2729,3.2747,3.2739,3.2718,3.2658,3.2655,3.2652,3.2631,3.2624,3.2619,0,0,0,0,0,0,3.287,3.2856,3.2862,3.2821,3.2807,3.2794,3.2773,3.278,3.2761,3.2764,3.2765,3.2761,3.2726,3.2718,3.2738,3.2676,3.2696,3.2691,3.2683,3.2676,3.2672,3.2675,3.2757,0,0,0,0,0,3.286,3.2837,3.2826,3.2791,3.2784,3.278,3.2767,3.2769,3.2754,3.2748,3.2739,3.2725,3.2704,3.2689,3.2669,3.2627,3.2625,3.2609,3.2604,3.26,3.2596,3.2576,3.257,3.264,3.264,3.264,0,0,3.2839,3.2829,3.2814,3.2786,3.2776,3.2753,3.2774,3.2749,3.2732,3.2744,3.2712,3.2705,3.2689,3.2651,3.2634,3.2644,3.2577,3.2596,3.2593,3.2591,3.2572,3.2566,3.256,3.2638,3.2638,3.2638,0,0,3.279,3.2779,3.275,3.274,3.2724,3.2722,3.2715,3.2701,3.2697,3.2664,3.2674,3.2654,3.2617,3.2606,3.2595,3.2545,3.2553,3.2538,3.2512,3.2493,3.2487,3.2482,3.2466,3.246,3.2534,3.2534,3.2534,0,3.2766,3.2732,3.2734,3.2709,3.2697,3.2708,3.2679,3.2669,3.2647,3.2639,3.265,3.2605,3.2595,3.2556,3.2544,3.2534,3.2528,3.254,3.2488,3.2483,3.2479,3.2463,3.2457,3.2532,3.2532,3.2533,3.2533,0,3.2705,3.2681,3.2659,3.264,3.2625,3.2598,3.2597,3.2582,3.2586,3.2582,3.255,3.2539,3.2518,3.2508,3.2511,3.247,3.2477,3.2488,3.2508,3.247,3.2456,3.245,3.253,3.2531,3.2531,3.2531,0,0,3.2639,3.2622,3.2614,3.2607,3.2591,3.2573,3.2547,3.2527,3.2515,3.25,3.248,3.2449,3.246,3.2448,3.2449,3.2432,3.2395,3.2445,3.2445,3.2438,3.2353,3.2346,3.2339,3.2401,3.2399,3.2398,3.2355,0,3.259,3.2546,3.2548,3.2506,3.2485,3.2497,3.2474,3.2463,3.2459,3.2442,3.2438,3.2417,3.2431,3.2425,3.2408,3.2403,3.2378,3.2406,3.2382,3.2381,3.2387,3.2331,3.2323,3.2282,3.2349,3.2348,3.2347,0,3.2527,3.2512,3.2468,3.2459,3.245,3.243,3.2413,3.2395,3.2383,3.2382,3.237,3.2375,3.235,3.2371,3.2337,3.2356,3.2346,3.2343,3.2341,3.234,3.2363,3.2329,3.2268,3.2263,3.2338,3.2339,3.2339,0,3.2486,3.2454,3.2425,3.2418,3.2405,3.2391,3.2385,3.2374,3.2362,3.2347,3.234,3.2322,3.2313,3.2299,3.23,3.2314,3.2266,3.2286,3.2266,3.2266,3.2256,3.2257,3.2194,3.2247,3.2247,3.2247,3.2247,0,3.2432,3.2406,3.2407,3.2389,3.236,3.2363,3.2335,3.233,3.2321,3.2303,3.231,3.2293,3.2295,3.2278,3.2278,3.2251,3.2246,3.2245,3.2246,3.2245,3.2246,3.224,3.2243,3.2246,3.2246,3.2246,3.2247,0,3.2382,3.2381,3.235,3.2341,3.2339,3.2318,3.231,3.2294,3.2292,3.2269,3.2264,3.2261,3.2241,3.2241,3.2217,3.2218,3.2186,3.2189,3.219,3.2191,3.2172,3.2174,3.2104,3.2096,3.2153,3.2153,3.2152,0,3.2348,3.2328,3.2318,3.2307,3.2301,3.2282,3.2271,3.2274,3.2262,3.2248,3.2234,3.2215,3.2201,3.2169,3.2165,3.2148,3.2152,3.2129,3.2149,3.215,3.2154,3.2156,3.2154,3.2125,3.2124,3.2124,3.2123,0,3.2289,3.2291,3.2275,3.2259,3.2246,3.2234,3.2222,3.2213,3.2214,3.2201,3.2182,3.2171,3.2149,3.2131,3.2115,3.2109,3.2117,3.2117,3.2111,3.2111,3.2114,3.2114,3.2181,3.2118,3.2119,3.2119,3.2119,3.212,3.2247,3.2231,3.2222,3.2205,3.2197,3.2187,3.2172,3.2168,3.2153,3.2136,3.2138,3.2117,3.2107,3.2087,3.208,3.2064,3.2072,3.2064,3.2062,3.2061,3.206,3.2115,3.2061,3.2061,3.2061,3.2061,3.2062,0,3.219,3.2186,3.217,3.2155,3.2141,3.215,3.2139,3.2127,3.2109,3.2099,3.2086,3.2065,3.2048,3.2043,3.2027,3.2016,3.2019,3.2012,3.2013,3.2012,3.2052,3.2059,3.2009,3.2009,3.2009,3.2009,3.2009,3.2009,3.2159,3.2134,3.2134,3.2105,3.21,3.2081,3.2074,3.2065,3.2057,3.2034,3.2021,3.2018,3.2011,3.1995,3.198,3.1979,3.1974,3.1965,3.1966,3.2004,3.2009,3.2014,3.2021,3.1964,3.1964,3.1928,3.1927,3.1927]}]]